"Pseudo-MPEC" for P117Wkb

Created 2020 Oct 28 20:07:09 UT using Find_Orb

Click here for an explanation of pseudo-MPECs

 
 Astrometry: 
     P117Wkb  C2020 10 15vRL/4=x!W1WZ+3ErIKfTG;;rEfiU1A=.Niq-o=dtyeAstrometryF51
     P117Wkb  C2020 10 15ax]dI#redacted;rp4B1Me-jsclick[4kQA:n_AB^,*6Dn_Gg/@UF51
     P117Wkb  C2020 10 15R8/=etJ0H_D96?-^$N'=5e-Y3mhereZTV/.lLXmPB;jf._;fore=F51
     P117Wkb  C2020 10 15DFZY1h8x5LSEexplanation'b.s[4+(dMCTm+5RFTpDT*#?Lo=;BF51

Station data:
(F51) Pan-STARRS 1, Haleakala  (N20.707235 W156.255910)  US/Hawaii.
   Observers N. Primak, A. Schultz, S. Watters, J. Thiel, T. Goggia. Measurer
   PS1 Science Consortium. 1.8-m Ritchey-Chrétien + CCD.

Orbital elements:  P117Wkb
   Perihelion 2020 Sep 9.817675 +/- 49.9 TT = 19:37:27 (JD 2459102.317675)
Epoch 2020 Oct 15.0 TT = JDT 2459137.5   Earth MOID: 0.4115   Ma: 0.0255
M   9.97589409 +/- 17               (J2000 ecliptic)          AutoNEOCP
n   0.28354846 +/- 0.256            Peri.  306.33527 +/- 70
a   2.29465739 +/- 1.38             Node    48.23034 +/- 57
e   0.3831657 +/- 0.245             Incl.    2.03545 +/- 1.8
P   3.48                   H 22.9   G  0.15   U 11.8  SR
q 1.41542330 +/- 0.492    Q 3.17389149 +/- 83.8
From 4 observations 2020 Oct. 15 (48.0 min); mean residual 0".08
Residuals in arcseconds: 
201015 F51  .07-  .11-    201015 F51  .01+  .07+    
201015 F51  .09+  .13+    201015 F51  .03-  .09-    

Ephemerides (geocentric):
Date (UTC) HH   RA              Dec         delta   r     elong  mag " sig PA
---- -- -- --  -------------   -----------  ------ ------ -----  --- ---- ---
2020 10 28 20  00 44 43.350   +02 33 00.46  .51789 1.4805 155.6 23.2  36d   0
2020 10 28 21  00 44 43.718   +02 33 15.42  .51811 1.4806 155.6 23.2  36d   0
2020 10 28 22  00 44 44.089   +02 33 30.40  .51833 1.4807 155.5 23.2  36d   0
2020 10 28 23  00 44 44.463   +02 33 45.40  .51855 1.4809 155.5 23.2  36d   0
2020 10 29 00  00 44 44.841   +02 34 00.41  .51877 1.4810 155.5 23.2  36d   0
2020 10 29 01  00 44 45.221   +02 34 15.44  .51900 1.4811 155.4 23.2  36d   0
2020 10 29 02  00 44 45.605   +02 34 30.48  .51922 1.4812 155.4 23.2  36d   0
2020 10 29 03  00 44 45.993   +02 34 45.54  .51944 1.4813 155.3 23.2  36d   0
2020 10 29 04  00 44 46.383   +02 35 00.61  .51967 1.4814 155.3 23.2  36d   0
2020 10 29 05  00 44 46.777   +02 35 15.70  .51989 1.4815 155.3 23.2  36d   0
2020 10 29 06  00 44 47.174   +02 35 30.80  .52011 1.4816 155.2 23.2  36d   0
2020 10 29 07  00 44 47.574   +02 35 45.91  .52034 1.4817 155.2 23.2  36d   0
2020 10 29 08  00 44 47.978   +02 36 01.04  .52056 1.4818 155.2 23.2  36d   0
2020 10 29 09  00 44 48.384   +02 36 16.19  .52079 1.4819 155.1 23.2  36d   0
2020 10 29 10  00 44 48.794   +02 36 31.35  .52101 1.4820 155.1 23.2  36d   0
2020 10 29 11  00 44 49.208   +02 36 46.53  .52124 1.4821 155.0 23.2  36d   0
2020 10 29 12  00 44 49.624   +02 37 01.72  .52146 1.4822 155.0 23.2  36d   0
2020 10 29 13  00 44 50.044   +02 37 16.92  .52169 1.4823 155.0 23.2  36d   0
2020 10 29 14  00 44 50.467   +02 37 32.14  .52191 1.4825 154.9 23.2  36d   0
2020 10 29 15  00 44 50.893   +02 37 47.37  .52214 1.4826 154.9 23.2  36d   0
2020 10 29 16  00 44 51.322   +02 38 02.62  .52236 1.4827 154.9 23.2  36d   0
2020 10 29 17  00 44 51.755   +02 38 17.89  .52259 1.4828 154.8 23.2  36d   0
2020 10 29 18  00 44 52.191   +02 38 33.17  .52282 1.4829 154.8 23.2  36d   0
2020 10 29 19  00 44 52.630   +02 38 48.46  .52304 1.4830 154.7 23.2  36d   0
2020 10 29 20  00 44 53.073   +02 39 03.77  .52327 1.4831 154.7 23.2  36d   0
2020 10 29 21  00 44 53.518   +02 39 19.09  .52350 1.4832 154.7 23.2  36d   0
2020 10 29 22  00 44 53.967   +02 39 34.43  .52373 1.4833 154.6 23.2  36d   0
2020 10 29 23  00 44 54.420   +02 39 49.78  .52396 1.4834 154.6 23.2  36d   0
2020 10 30 00  00 44 54.875   +02 40 05.15  .52418 1.4835 154.6 23.2  36d   0
2020 10 30 01  00 44 55.334   +02 40 20.53  .52441 1.4836 154.5 23.2  36d   0
2020 10 30 02  00 44 55.796   +02 40 35.93  .52464 1.4838 154.5 23.2  36d   0
2020 10 30 03  00 44 56.261   +02 40 51.34  .52487 1.4839 154.4 23.2  36d   0
2020 10 30 04  00 44 56.730   +02 41 06.77  .52510 1.4840 154.4 23.2  36d   0
2020 10 30 05  00 44 57.201   +02 41 22.21  .52533 1.4841 154.4 23.2  36d   0
2020 10 30 06  00 44 57.676   +02 41 37.67  .52556 1.4842 154.3 23.2  36d   0
2020 10 30 07  00 44 58.155   +02 41 53.14  .52579 1.4843 154.3 23.2  36d   0
2020 10 30 08  00 44 58.636   +02 42 08.62  .52602 1.4844 154.2 23.2  36d   0
2020 10 30 09  00 44 59.121   +02 42 24.12  .52625 1.4845 154.2 23.2  36d   0
2020 10 30 10  00 44 59.609   +02 42 39.64  .52648 1.4846 154.2 23.2  36d   0
2020 10 30 11  00 45 00.101   +02 42 55.17  .52671 1.4847 154.1 23.2  36d   0
2020 10 30 12  00 45 00.595   +02 43 10.71  .52694 1.4848 154.1 23.2  36d   0
2020 10 30 13  00 45 01.093   +02 43 26.27  .52717 1.4849 154.1 23.2  36d   0
2020 10 30 14  00 45 01.594   +02 43 41.84  .52741 1.4851 154.0 23.2  36d   0
2020 10 30 15  00 45 02.099   +02 43 57.43  .52764 1.4852 154.0 23.2  36d   0
2020 10 30 16  00 45 02.606   +02 44 13.03  .52787 1.4853 153.9 23.2  36d   0
2020 10 30 17  00 45 03.117   +02 44 28.65  .52810 1.4854 153.9 23.2  36d 179
2020 10 30 18  00 45 03.632   +02 44 44.28  .52833 1.4855 153.9 23.2  36d 179
2020 10 30 19  00 45 04.149   +02 44 59.92  .52857 1.4856 153.8 23.2  36d 179